This demonstration page uses our WeatherBlox Daily Observations layout. Learn more.

Left ArrowRight Arrow

39.08367, -84.50855

Hourly Observations for December 1, 2020

Temp ( °F °C ) Dew Point ( °F °C ) Humidity (%) Winds ( mph kmh ) Pressure ( in mb ) Visibility ( mi km ) Precip ( " mm )
12:02 am 00:02 Cloudy with Light Snow 32 0 29 -1.7 88 88 W 13 20 29.9 1012 2 3.21868 0.001 0.001
12:09 am 00:09 Cloudy with Light Snow 32 0 29 -1.7 88 88 W 10 17 29.9 1012 1.75 2.816345 0.001 0.001
12:18 am 00:18 Cloudy with Light Snow 32 0 29 -1.7 88 88 W 10 17 29.9 1012 2 3.21868 0.01 0.254
12:53 am 00:53 Cloudy with Light Snow 32 0 29 -1.7 88 88 W 10 17 29.88 1012 2.5 4.02335 0.01 0.254
1:40 am 01:40 Cloudy with Light Snow 32 0 28 -2.2 85 85 W 10 17 29.9 1012 3 4.82802 0.001 0.001
1:53 am 01:53 Cloudy with Light Snow 32 0 28 -2.2 85 85 W 12 19 29.88 1012 4 6.43736 0.001 0.001
2:02 am 02:02 Cloudy with Light Snow 32 0 28 -2.2 85 85 W 10 17 29.9 1012 6 9.65604 0.001 0.001
2:12 am 02:12 Cloudy with Light Snow 32 0 28 -2.2 85 85 W 12 19 29.91 1013 4 6.43736 0.001 0.001
2:38 am 02:38 Cloudy with Light Snow 32 0 28 -2.2 85 85 W 10 17 29.92 1013 4 6.43736 0.001 0.001
2:53 am 02:53 Cloudy with Light Snow 31 -0.6 28 -2.2 89 89 W 17 28 29.9 1013 3 4.82802 0.001 0.001
3:53 am 03:53 Cloudy with Light Snow 31 -0.6 27 -2.8 85 85 WNW 9 15 29.91 1013 4 6.43736 0.001 0.001
4:53 am 04:53 Cloudy with Light Snow 30 -1.1 26 -3.3 85 85 W 16 26 29.92 1013 9 14.48406 0.001 0.001
5:34 am 05:34 Cloudy 30 -1.1 26 -3.3 85 85 W 6 9 29.96 1015 10 16.0934 0.001 0.001
5:42 am 05:42 Cloudy 31 -0.6 26 -3.3 82 82 VRB 7 11 29.96 1015 10 16.0934 0.001 0.001
5:53 am 05:53 Cloudy 31 -0.6 26 -3.3 82 82 VRB 7 11 29.94 1014 10 16.0934 0.001 0.001
6:53 am 06:53 Cloudy 31 -0.6 26 -3.3 82 82 W 14 22 29.96 1015 10 16.0934 0 0
7:53 am 07:53 Cloudy 31 -0.6 25 -3.9 79 79 W 13 20 29.98 1015 10 16.0934 0 0
8:53 am 08:53 Cloudy 31 -0.6 25 -3.9 79 79 W 14 22 30 1016 10 16.0934 0 0
9:53 am 09:53 Cloudy 31 -0.6 25 -3.9 79 79 W 12 19 30.01 1016 10 16.0934 0 0
10:53 am 10:53 Cloudy 32 0 25 -3.9 75 75 W 14 22 30.02 1017 10 16.0934 0 0
11:53 am 11:53 Cloudy 32 0 26 -3.3 79 79 WSW 13 20 30.03 1017 10 16.0934 0 0
12:53 pm 12:53 Cloudy 32 0 26 -3.3 79 79 W 14 22 30.02 1017 10 16.0934 0 0
1:53 pm 13:53 Cloudy 33 0.6 25 -3.9 72 72 W 15 24 30.03 1017 10 16.0934 0 0
2:48 pm 14:48 Cloudy 34 1 25 -4 70 70 W 18 30 30.05 1017 10 16.0934 0 0
2:53 pm 14:53 Cloudy 33 0.6 24 -4.4 70 70 W 14 22 30.04 1017 10 16.0934 0 0
3:53 pm 15:53 Cloudy 33 0.6 24 -4.4 70 70 W 15 24 30.05 1018 10 16.0934 0 0
4:53 pm 16:53 Cloudy 34 1.1 24 -4.4 67 67 W 17 28 30.07 1018 10 16.0934 0 0
5:53 pm 17:53 Cloudy 33 0.6 24 -4.4 70 70 WSW 8 13 30.1 1019 10 16.0934 0 0
6:53 pm 18:53 Cloudy 33 0.6 23 -5 66 66 W 10 17 30.12 1020 10 16.0934 0 0
7:53 pm 19:53 Cloudy 33 0.6 23 -5 66 66 W 17 28 30.15 1021 10 16.0934 0 0
8:53 pm 20:53 Cloudy 33 0.6 22 -5.6 64 64 W 8 13 30.16 1022 10 16.0934 0 0
9:53 pm 21:53 Cloudy 33 0.6 23 -5 66 66 NW 7 11 30.18 1022 10 16.0934 0 0
10:13 pm 22:13 Cloudy 33 0.6 22 -5.6 64 64 NW 8 13 30.21 1023 10 16.0934 0 0
10:42 pm 22:42 Cloudy 32 0 22 -5.6 66 66 NW 10 17 30.21 1023 10 16.0934 0 0
10:53 pm 22:53 Cloudy 32 0 22 -5.6 66 66 WNW 6 9 30.19 1022 10 16.0934 0 0
11:11 pm 23:11 Cloudy 32 0 22 -5.6 66 66 NW 8 13 30.21 1023 10 16.0934 0 0
11:53 pm 23:53 Cloudy 32 0 22 -5.6 66 66 NW 9 15 30.21 1023 10 16.0934 0 0

Powered by AerisWeather